• In Portugal
  • List of Countries
  • For 7 days
  • Water Temperature
  • Satellite Maps
  • Weather Map
  • Weather Widgets
  • user-avatar
    Login

    Hourly Weather Rybaltovo

    Today, 23 July, Monday

    Time Temperature Precipitation Wind Pressure Humidity
    00:00 +19°C° 0 mm 3 mps 738 mmHg 97%
    01:00 +18°C° 0 mm 2 mps 738 mmHg 97%
    02:00 +18°C° 0 mm 2 mps 738 mmHg 98%
    03:00 +18°C° 0 mm 2 mps 738 mmHg 98%
    04:00 +18°C° 0 mm 2 mps 738 mmHg 98%
    05:00 +18°C° 0 mm 3 mps 738 mmHg 98%
    06:00 +19°C° 0 mm 3 mps 739 mmHg 96%
    07:00 +19°C° 0 mm 3 mps 739 mmHg 95%
    08:00 +20°C° 0 mm 4 mps 739 mmHg 93%
    09:00 +20°C° 0 mm 4 mps 739 mmHg 91%
    10:00 +21°C° 0 mm 4 mps 739 mmHg 90%
    11:00 +21°C° 0 mm 4 mps 739 mmHg 88%
    12:00 +21°C° 0 mm 4 mps 739 mmHg 86%
    13:00 +22°C° 0 mm 4 mps 739 mmHg 84%
    14:00 +22°C° 0 mm 4 mps 739 mmHg 82%
    15:00 +24°C° 0 mm 3 mps 739 mmHg 81%
    16:00 +24°C° 0 mm 3 mps 739 mmHg 80%
    17:00 +24°C° 0 mm 3 mps 739 mmHg 79%
    18:00 +22°C° 0.1 mm 3 mps 739 mmHg 83%
    19:00 +21°C° 0.1 mm 3 mps 739 mmHg 88%
    20:00 +20°C° 0.1 mm 3 mps 739 mmHg 93%
    21:00 +19°C° 0 mm 3 mps 739 mmHg 94%
    22:00 +18°C° 0 mm 3 mps 739 mmHg 95%
    23:00 +18°C° 0 mm 3 mps 739 mmHg 97%

    Tomorrow, 24 July, Tuesday

    Time Temperature Precipitation Wind Pressure Humidity
    00:00 +17°C° 0 mm 3 mps 739 mmHg 97%
    01:00 +17°C° 0 mm 2 mps 739 mmHg 97%
    02:00 +17°C° 0 mm 2 mps 739 mmHg 98%
    03:00 +17°C° 0 mm 3 mps 740 mmHg 98%
    04:00 +17°C° 0 mm 3 mps 740 mmHg 98%
    05:00 +17°C° 0 mm 3 mps 740 mmHg 97%
    06:00 +18°C° 0 mm 3 mps 740 mmHg 96%
    07:00 +18°C° 0 mm 4 mps 740 mmHg 95%
    08:00 +19°C° 0 mm 4 mps 740 mmHg 94%
    09:00 +19°C° 0 mm 4 mps 740 mmHg 92%
    10:00 +20°C° 0 mm 4 mps 740 mmHg 90%
    11:00 +20°C° 0 mm 4 mps 740 mmHg 88%
    12:00 +21°C° 0.1 mm 4 mps 740 mmHg 87%
    13:00 +21°C° 0.1 mm 4 mps 740 mmHg 86%
    14:00 +21°C° 0.1 mm 4 mps 740 mmHg 84%
    15:00 +22°C° 0.1 mm 4 mps 740 mmHg 84%
    16:00 +22°C° 0.1 mm 4 mps 740 mmHg 85%
    17:00 +22°C° 0.1 mm 4 mps 740 mmHg 85%
    18:00 +21°C° 0 mm 4 mps 740 mmHg 87%
    19:00 +21°C° 0 mm 3 mps 741 mmHg 89%
    20:00 +20°C° 0 mm 3 mps 741 mmHg 91%
    21:00 +20°C° 0 mm 3 mps 741 mmHg 92%
    22:00 +19°C° 0 mm 3 mps 741 mmHg 94%
    23:00 +19°C° 0 mm 3 mps 741 mmHg 95%

    Day after tomorrow, 25 July, Wednesday

    Time Temperature Precipitation Wind Pressure Humidity
    00:00 +19°C° 0 mm 3 mps 741 mmHg 96%
    01:00 +18°C° 0 mm 3 mps 741 mmHg 97%
    02:00 +18°C° 0 mm 3 mps 741 mmHg 97%
    03:00 +18°C° 0 mm 3 mps 741 mmHg 98%
    04:00 +18°C° 0 mm 3 mps 741 mmHg 98%
    05:00 +18°C° 0 mm 3 mps 741 mmHg 98%
    06:00 +19°C° 0 mm 3 mps 742 mmHg 96%
    07:00 +20°C° 0 mm 3 mps 742 mmHg 93%
    08:00 +21°C° 0 mm 4 mps 742 mmHg 91%
    09:00 +22°C° 0.3 mm 4 mps 742 mmHg 88%
    10:00 +25°C° 0.3 mm 4 mps 742 mmHg 84%
    11:00 +26°C° 0.3 mm 4 mps 742 mmHg 81%
    12:00 +26°C° 0.3 mm 4 mps 742 mmHg 78%
    13:00 +27°C° 0.3 mm 4 mps 742 mmHg 75%
    14:00 +28°C° 0.3 mm 4 mps 742 mmHg 72%
    15:00 +27°C° 0.7 mm 4 mps 742 mmHg 75%
    16:00 +27°C° 0.7 mm 4 mps 742 mmHg 78%
    17:00 +26°C° 0.7 mm 4 mps 742 mmHg 82%
    18:00 +25°C° 0.2 mm 4 mps 742 mmHg 85%
    19:00 +24°C° 0.2 mm 3 mps 743 mmHg 89%
    20:00 +21°C° 0.2 mm 3 mps 743 mmHg 93%
    21:00 +20°C° 0 mm 3 mps 743 mmHg 93%
    22:00 +19°C° 0 mm 3 mps 743 mmHg 93%
    23:00 +19°C° 0 mm 3 mps 743 mmHg 93%

    26 July, Thursday

    Time Temperature Precipitation Wind Pressure Humidity
    00:00 +18°C° 0 mm 3 mps 744 mmHg 94%
    01:00 +17°C° 0 mm 3 mps 744 mmHg 94%
    02:00 +17°C° 0 mm 2 mps 744 mmHg 95%
    03:00 +17°C° 0 mm 2 mps 744 mmHg 94%
    04:00 +16°C° 0 mm 2 mps 744 mmHg 94%
    05:00 +16°C° 0 mm 2 mps 744 mmHg 94%
    06:00 +18°C° 0 mm 2 mps 744 mmHg 90%
    07:00 +19°C° 0 mm 2 mps 745 mmHg 86%
    08:00 +21°C° 0 mm 2 mps 745 mmHg 82%
    09:00 +23°C° 0 mm 2 mps 745 mmHg 78%
    10:00 +24°C° 0 mm 3 mps 745 mmHg 74%
    11:00 +25°C° 0 mm 3 mps 745 mmHg 69%
    12:00 +25°C° 0 mm 3 mps 745 mmHg 69%
    13:00 +26°C° 0 mm 3 mps 745 mmHg 69%
    14:00 +26°C° 0 mm 3 mps 745 mmHg 69%
    15:00 +26°C° 0.1 mm 3 mps 745 mmHg 71%
    16:00 +26°C° 0.1 mm 3 mps 744 mmHg 73%
    17:00 +25°C° 0.1 mm 2 mps 744 mmHg 75%
    18:00 +24°C° 0 mm 2 mps 744 mmHg 80%
    19:00 +23°C° 0 mm 2 mps 744 mmHg 85%
    20:00 +21°C° 0 mm 1 mps 744 mmHg 90%
    21:00 +21°C° 0 mm 1 mps 745 mmHg 91%
    22:00 +20°C° 0 mm 1 mps 745 mmHg 92%
    23:00 +20°C° 0 mm 1 mps 745 mmHg 93%

    27 July, Friday

    Time Temperature Precipitation Wind Pressure Humidity
    00:00 +18°C° 0 mm 2 mps 744 mmHg 94%
    01:00 +18°C° 0 mm 2 mps 744 mmHg 95%
    02:00 +18°C° 0 mm 2 mps 744 mmHg 95%
    03:00 +18°C° 0 mm 2 mps 744 mmHg 96%
    04:00 +18°C° 0 mm 2 mps 744 mmHg 96%
    05:00 +18°C° 0 mm 2 mps 744 mmHg 96%
    06:00 +19°C° 0 mm 3 mps 744 mmHg 93%
    07:00 +21°C° 0 mm 3 mps 744 mmHg 90%
    08:00 +24°C° 0 mm 3 mps 744 mmHg 87%
    09:00 +25°C° 1.4 mm 3 mps 744 mmHg 84%
    10:00 +26°C° 1.4 mm 3 mps 744 mmHg 82%
    11:00 +27°C° 1.4 mm 4 mps 744 mmHg 79%
    12:00 +27°C° 1.7 mm 3 mps 744 mmHg 80%
    13:00 +27°C° 1.7 mm 3 mps 744 mmHg 82%
    14:00 +27°C° 1.7 mm 3 mps 744 mmHg 83%
    15:00 +27°C° 0.7 mm 3 mps 744 mmHg 84%
    16:00 +26°C° 0.7 mm 3 mps 744 mmHg 85%
    17:00 +26°C° 0.7 mm 3 mps 744 mmHg 85%
    18:00 +25°C° 0.3 mm 3 mps 744 mmHg 86%
    19:00 +25°C° 0.3 mm 3 mps 744 mmHg 87%
    20:00 +24°C° 0.3 mm 3 mps 744 mmHg 87%
    21:00 +22°C° 0.6 mm 3 mps 744 mmHg 89%
    22:00 +22°C° 0.6 mm 3 mps 745 mmHg 90%
    23:00 +21°C° 0.6 mm 3 mps 745 mmHg 91%

    28 July, Saturday

    Time Temperature Precipitation Wind Pressure Humidity
    00:00 +21°C° 0 mm 3 mps 745 mmHg 92%
    01:00 +20°C° 0 mm 3 mps 745 mmHg 93%
    02:00 +20°C° 0 mm 3 mps 745 mmHg 94%
    03:00 +19°C° 0 mm 3 mps 745 mmHg 94%
    04:00 +19°C° 0 mm 3 mps 745 mmHg 94%
    05:00 +19°C° 0 mm 3 mps 745 mmHg 94%
    06:00 +20°C° 0 mm 3 mps 745 mmHg 91%
    07:00 +22°C° 0 mm 3 mps 745 mmHg 88%
    08:00 +23°C° 0 mm 4 mps 745 mmHg 84%
    09:00 +25°C° 0 mm 4 mps 745 mmHg 79%
    10:00 +27°C° 0 mm 4 mps 745 mmHg 74%
    11:00 +28°C° 0 mm 4 mps 745 mmHg 69%
    12:00 +28°C° 0 mm 4 mps 745 mmHg 68%
    13:00 +29°C° 0 mm 4 mps 745 mmHg 66%
    14:00 +29°C° 0 mm 4 mps 745 mmHg 65%
    15:00 +29°C° 0 mm 4 mps 745 mmHg 67%
    16:00 +29°C° 0 mm 3 mps 745 mmHg 70%
    17:00 +29°C° 0 mm 3 mps 745 mmHg 73%
    18:00 +27°C° 0 mm 3 mps 745 mmHg 77%
    19:00 +25°C° 0 mm 3 mps 745 mmHg 80%
    20:00 +24°C° 0 mm 3 mps 745 mmHg 84%
    21:00 +22°C° 0 mm 3 mps 745 mmHg 85%
    22:00 +21°C° 0 mm 3 mps 745 mmHg 87%
    23:00 +21°C° 0 mm 3 mps 745 mmHg 88%
    Show more